CXADT SUPE-SUMO

Flight info

Callsign CXADT
Flight time N/A
Altitude 8000
Route LDS DCT AROMO
Aircraft C310/L-SDFGR/S

Departure

Time N/A
Airport El Jagüel / Punta del Este Airport (SUPE)

Arrival

Time 2026-05-07 18:29
Airport Cerro Largo International Airport (SUMO)
Time Latitude Longitude Altitude Speed Heading
2026-05-07 17:26 -34.38824 -54.79048 7937 ft 114 kts
2026-05-07 17:26 -34.38049 -54.78827 7932 ft 115 kts
2026-05-07 17:26 -34.37268 -54.78606 7939 ft 116 kts
2026-05-07 17:26 -34.36473 -54.78378 7945 ft 118 kts
2026-05-07 17:27 -34.35668 -54.78150 7935 ft 120 kts
2026-05-07 17:27 -34.34864 -54.77921 7935 ft 121 kts
2026-05-07 17:27 -34.34043 -54.77687 7935 ft 121 kts
2026-05-07 17:27 -34.33219 -54.77452 7942 ft 122 kts
2026-05-07 17:28 -34.32385 -54.77216 7935 ft 123 kts
2026-05-07 17:28 -34.31556 -54.76980 7938 ft 122 kts
2026-05-07 17:28 -34.30738 -54.76746 7937 ft 121 kts
2026-05-07 17:28 -34.29918 -54.76514 7937 ft 121 kts
2026-05-07 17:29 -34.29096 -54.76280 7935 ft 122 kts
2026-05-07 17:29 -34.28271 -54.76046 7941 ft 122 kts
2026-05-07 17:29 -34.27443 -54.75810 7940 ft 122 kts
2026-05-07 17:29 -34.26617 -54.75576 7943 ft 122 kts
2026-05-07 17:30 -34.25785 -54.75341 7932 ft 123 kts
2026-05-07 17:30 -34.24959 -54.75106 7941 ft 123 kts
2026-05-07 17:30 -34.24123 -54.74868 7940 ft 124 kts
2026-05-07 17:30 -34.23285 -54.74631 7940 ft 124 kts
2026-05-07 17:31 -34.22437 -54.74391 7935 ft 125 kts
2026-05-07 17:31 -34.21586 -54.74150 7876 ft 129 kts
2026-05-07 17:31 -34.20688 -54.73897 7768 ft 136 kts
2026-05-07 17:31 -34.19751 -54.73631 7669 ft 141 kts
2026-05-07 17:32 -34.18785 -54.73357 7583 ft 144 kts
2026-05-07 17:32 -34.17819 -54.73081 7580 ft 142 kts
2026-05-07 17:32 -34.16864 -54.72810 7585 ft 140 kts
2026-05-07 17:32 -34.16237 -54.72633 7582 ft 139 kts
2026-05-07 17:33 -34.14977 -54.72276 7578 ft 139 kts
2026-05-07 17:33 -34.14359 -54.72101 7575 ft 138 kts
2026-05-07 17:33 -34.13116 -54.71749 7566 ft 136 kts
2026-05-07 17:33 -34.12209 -54.71492 7574 ft 135 kts
2026-05-07 17:34 -34.11294 -54.71234 7579 ft 135 kts
2026-05-07 17:34 -34.10384 -54.70976 7571 ft 134 kts
2026-05-07 17:34 -34.09783 -54.70806 7565 ft 133 kts
2026-05-07 17:34 -34.08870 -54.70549 7562 ft 132 kts
2026-05-07 17:35 -34.07988 -54.70299 7565 ft 131 kts
2026-05-07 17:35 -34.07096 -54.70047 7564 ft 131 kts
2026-05-07 17:35 -34.06208 -54.69796 7560 ft 131 kts
2026-05-07 17:35 -34.05325 -54.69547 7558 ft 130 kts
2026-05-07 17:36 -34.04443 -54.69297 7564 ft 130 kts
2026-05-07 17:36 -34.03566 -54.69050 7563 ft 129 kts
2026-05-07 17:36 -34.02693 -54.68803 7564 ft 128 kts
2026-05-07 17:36 -34.01822 -54.68558 7560 ft 128 kts
2026-05-07 17:37 -34.00953 -54.68313 7567 ft 128 kts
2026-05-07 17:37 -34.00091 -54.68069 7566 ft 126 kts
2026-05-07 17:37 -33.99238 -54.67828 7565 ft 126 kts
2026-05-07 17:37 -33.98386 -54.67589 7564 ft 125 kts
2026-05-07 17:38 -33.97554 -54.67353 7560 ft 122 kts
2026-05-07 17:38 -33.96733 -54.67122 7561 ft 121 kts
2026-05-07 17:38 -33.95905 -54.66890 7560 ft 123 kts
2026-05-07 17:38 -33.95076 -54.66656 7562 ft 122 kts
2026-05-07 17:39 -33.94246 -54.66422 7568 ft 122 kts
2026-05-07 17:39 -33.93414 -54.66188 7569 ft 123 kts
2026-05-07 17:39 -33.92581 -54.65952 7569 ft 123 kts
2026-05-07 17:39 -33.91742 -54.65716 7572 ft 124 kts
2026-05-07 17:40 -33.90904 -54.65481 7567 ft 125 kts
2026-05-07 17:40 -33.90041 -54.65238 7570 ft 126 kts
2026-05-07 17:40 -33.89193 -54.64998 7561 ft 128 kts
2026-05-07 17:40 -33.88318 -54.64755 7566 ft 130 kts
2026-05-07 17:41 -33.87432 -54.64506 7566 ft 131 kts
2026-05-07 17:41 -33.86544 -54.64255 7567 ft 131 kts
2026-05-07 17:41 -33.85659 -54.64006 7565 ft 131 kts
2026-05-07 17:41 -33.84773 -54.63756 7564 ft 130 kts
2026-05-07 17:42 -33.83889 -54.63508 7559 ft 130 kts
2026-05-07 17:42 -33.83020 -54.63264 7554 ft 130 kts
2026-05-07 17:42 -33.82142 -54.63018 7551 ft 129 kts
2026-05-07 17:42 -33.81267 -54.62772 7548 ft 129 kts
2026-05-07 17:43 -33.80396 -54.62527 7552 ft 128 kts
2026-05-07 17:43 -33.79528 -54.62283 7548 ft 128 kts
2026-05-07 17:43 -33.78661 -54.62040 7549 ft 128 kts
2026-05-07 17:43 -33.77794 -54.61796 7553 ft 128 kts
2026-05-07 17:44 -33.76925 -54.61552 7552 ft 128 kts
2026-05-07 17:44 -33.76071 -54.61312 7555 ft 127 kts
2026-05-07 17:44 -33.75205 -54.61068 7551 ft 127 kts
2026-05-07 17:44 -33.74341 -54.60825 7555 ft 127 kts
2026-05-07 17:45 -33.73481 -54.60583 7555 ft 127 kts
2026-05-07 17:45 -33.72624 -54.60341 7547 ft 126 kts
2026-05-07 17:45 -33.71769 -54.60100 7547 ft 126 kts
2026-05-07 17:45 -33.70915 -54.59858 7550 ft 126 kts
2026-05-07 17:46 -33.70063 -54.59618 7551 ft 126 kts
2026-05-07 17:46 -33.69212 -54.59377 7544 ft 125 kts
2026-05-07 17:46 -33.68365 -54.59136 7542 ft 125 kts
2026-05-07 17:46 -33.67519 -54.58896 7554 ft 125 kts
2026-05-07 17:47 -33.66673 -54.58656 7547 ft 124 kts
2026-05-07 17:47 -33.65833 -54.58417 7542 ft 124 kts
2026-05-07 17:47 -33.65007 -54.58182 7540 ft 123 kts
2026-05-07 17:47 -33.64169 -54.57944 7550 ft 123 kts
2026-05-07 17:48 -33.63331 -54.57706 7543 ft 124 kts
2026-05-07 17:48 -33.62495 -54.57468 7540 ft 123 kts
2026-05-07 17:48 -33.61666 -54.57232 7542 ft 122 kts
2026-05-07 17:48 -33.60846 -54.56996 7546 ft 121 kts
2026-05-07 17:49 -33.60031 -54.56761 7539 ft 120 kts
2026-05-07 17:49 -33.59219 -54.56526 7534 ft 120 kts
2026-05-07 17:49 -33.58410 -54.56290 7531 ft 119 kts
2026-05-07 17:49 -33.57603 -54.56054 7538 ft 119 kts
2026-05-07 17:50 -33.56793 -54.55819 7541 ft 120 kts
2026-05-07 17:50 -33.55980 -54.55582 7538 ft 120 kts
2026-05-07 17:50 -33.55178 -54.55350 7540 ft 120 kts
2026-05-07 17:50 -33.54365 -54.55114 7549 ft 120 kts
2026-05-07 17:51 -33.53556 -54.54879 7541 ft 120 kts
2026-05-07 17:51 -33.52744 -54.54643 7537 ft 120 kts
2026-05-07 17:51 -33.51934 -54.54408 7538 ft 120 kts
2026-05-07 17:51 -33.51122 -54.54173 7545 ft 119 kts
2026-05-07 17:52 -33.50319 -54.53939 7535 ft 119 kts
2026-05-07 17:52 -33.49521 -54.53704 7529 ft 117 kts
2026-05-07 17:52 -33.48732 -54.53471 7533 ft 116 kts
2026-05-07 17:52 -33.47952 -54.53238 7538 ft 115 kts
2026-05-07 17:53 -33.47184 -54.53007 7531 ft 113 kts
2026-05-07 17:53 -33.46435 -54.52779 7525 ft 112 kts
2026-05-07 17:53 -33.45683 -54.52547 7526 ft 111 kts
2026-05-07 17:53 -33.44936 -54.52316 7530 ft 111 kts
2026-05-07 17:54 -33.44190 -54.52086 7525 ft 110 kts
2026-05-07 17:54 -33.43454 -54.51856 7529 ft 109 kts
2026-05-07 17:54 -33.42723 -54.51626 7528 ft 109 kts
2026-05-07 17:54 -33.41990 -54.51395 7532 ft 109 kts
2026-05-07 17:55 -33.41254 -54.51166 7532 ft 109 kts
2026-05-07 17:55 -33.40520 -54.50935 7524 ft 109 kts
2026-05-07 17:55 -33.39791 -54.50705 7529 ft 108 kts
2026-05-07 17:55 -33.39071 -54.50475 7536 ft 106 kts
2026-05-07 17:56 -33.38357 -54.50245 7526 ft 106 kts
2026-05-07 17:56 -33.37653 -54.50017 7522 ft 104 kts
2026-05-07 17:56 -33.36954 -54.49788 7519 ft 104 kts
2026-05-07 17:56 -33.36257 -54.49558 7522 ft 104 kts 360°
2026-05-07 17:57 -33.35567 -54.49329 7524 ft 103 kts 359°
2026-05-07 17:57 -33.35114 -54.49179 7524 ft 102 kts 359°
2026-05-07 17:57 -33.34208 -54.48875 7517 ft 101 kts 359°
2026-05-07 17:57 -33.33471 -54.48648 7278 ft 117 kts 359°
2026-05-07 17:58 -33.32634 -54.48422 7043 ft 129 kts 359°
2026-05-07 17:58 -33.31722 -54.48196 6806 ft 138 kts 359°
2026-05-07 17:58 -33.30756 -54.47968 6560 ft 145 kts 359°
2026-05-07 17:58 -33.29750 -54.47739 6332 ft 150 kts 359°
2026-05-07 17:59 -33.28715 -54.47506 6022 ft 151 kts 359°
2026-05-07 17:59 -33.27682 -54.47275 5691 ft 151 kts 359°
2026-05-07 17:59 -33.26641 -54.47043 5346 ft 153 kts 359°
2026-05-07 17:59 -33.25587 -54.46812 5014 ft 155 kts 359°
2026-05-07 18:00 -33.24526 -54.46579 4673 ft 156 kts 359°
2026-05-07 18:00 -33.23457 -54.46347 4349 ft 156 kts 359°
2026-05-07 18:00 -33.22386 -54.46114 3999 ft 157 kts 360°
2026-05-07 18:00 -33.21308 -54.45885 3663 ft 158 kts
2026-05-07 18:01 -33.20228 -54.45657 3327 ft 158 kts
2026-05-07 18:01 -33.19144 -54.45432 2993 ft 158 kts
2026-05-07 18:01 -33.18054 -54.45209 2660 ft 159 kts
2026-05-07 18:01 -33.16982 -54.44994 2536 ft 150 kts
2026-05-07 18:02 -33.15146 -54.44593 2515 ft 126 kts
2026-05-07 18:02 -33.14308 -54.44396 2517 ft 120 kts
2026-05-07 18:02 -33.13505 -54.44201 2518 ft 116 kts
2026-05-07 18:03 -33.12725 -54.44006 2516 ft 113 kts
2026-05-07 18:03 -33.11967 -54.43810 2512 ft 110 kts
2026-05-07 18:03 -33.11235 -54.43619 2518 ft 105 kts
2026-05-07 18:03 -33.10547 -54.43426 2529 ft 98 kts
2026-05-07 18:04 -33.09891 -54.43229 2514 ft 96 kts
2026-05-07 18:04 -33.09260 -54.43034 2518 ft 92 kts
2026-05-07 18:04 -33.08663 -54.42836 2519 ft 87 kts 360°
2026-05-07 18:04 -33.08090 -54.42639 2518 ft 84 kts 360°
2026-05-07 18:05 -33.07508 -54.42445 2531 ft 91 kts 360°
2026-05-07 18:05 -33.06869 -54.42246 2537 ft 99 kts 359°
2026-05-07 18:05 -33.06180 -54.42048 2535 ft 105 kts 359°
2026-05-07 18:05 -33.05452 -54.41848 2538 ft 110 kts 359°
2026-05-07 18:06 -33.04689 -54.41650 2535 ft 114 kts 359°
2026-05-07 18:06 -33.03900 -54.41452 2533 ft 118 kts 359°
2026-05-07 18:06 -33.03094 -54.41252 2535 ft 119 kts 360°
2026-05-07 18:06 -33.02273 -54.41052 2536 ft 121 kts 360°
2026-05-07 18:07 -33.01444 -54.40852 2536 ft 122 kts 360°
2026-05-07 18:07 -33.00609 -54.40652 2532 ft 123 kts 360°
2026-05-07 18:07 -32.99765 -54.40451 2530 ft 124 kts 360°
2026-05-07 18:07 -32.98931 -54.40251 2527 ft 121 kts 360°
2026-05-07 18:08 -32.98110 -54.40050 2531 ft 120 kts 360°
2026-05-07 18:08 -32.97294 -54.39851 2524 ft 119 kts 360°
2026-05-07 18:08 -32.96485 -54.39650 2528 ft 118 kts 360°
2026-05-07 18:08 -32.95693 -54.39454 2526 ft 118 kts 360°
2026-05-07 18:09 -32.94887 -54.39255 2513 ft 119 kts 359°
2026-05-07 18:09 -32.94079 -54.39058 2523 ft 118 kts 360°
2026-05-07 18:09 -32.93273 -54.38862 2532 ft 118 kts 359°
2026-05-07 18:09 -32.92472 -54.38664 2530 ft 117 kts 360°
2026-05-07 18:10 -32.91680 -54.38466 2534 ft 116 kts 360°
2026-05-07 18:10 -32.90890 -54.38268 2529 ft 115 kts 360°
2026-05-07 18:10 -32.90104 -54.38071 2534 ft 116 kts 360°
2026-05-07 18:10 -32.89317 -54.37874 2529 ft 115 kts
2026-05-07 18:11 -32.88541 -54.37677 2528 ft 113 kts
2026-05-07 18:11 -32.88025 -54.37544 2526 ft 112 kts
2026-05-07 18:11 -32.87060 -54.37284 2532 ft 105 kts
2026-05-07 18:11 -32.86341 -54.37087 2530 ft 108 kts
2026-05-07 18:12 -32.85589 -54.36890 2534 ft 113 kts
2026-05-07 18:12 -32.84809 -54.36692 2536 ft 115 kts
2026-05-07 18:12 -32.84026 -54.36494 2546 ft 116 kts
2026-05-07 18:12 -32.83199 -54.36296 2547 ft 126 kts 360°
2026-05-07 18:13 -32.82311 -54.36093 2548 ft 132 kts 360°
2026-05-07 18:13 -32.81402 -54.35889 2544 ft 133 kts
2026-05-07 18:13 -32.80509 -54.35685 2546 ft 128 kts
2026-05-07 18:13 -32.79626 -54.35481 2545 ft 131 kts
2026-05-07 18:14 -32.78734 -54.35281 2543 ft 131 kts
2026-05-07 18:14 -32.77830 -54.35081 2537 ft 132 kts
2026-05-07 18:14 -32.76937 -54.34881 2540 ft 130 kts
2026-05-07 18:14 -32.76045 -54.34684 2526 ft 128 kts
2026-05-07 18:15 -32.75192 -54.34486 2533 ft 123 kts 359°
2026-05-07 18:15 -32.74358 -54.34289 2551 ft 126 kts 359°
2026-05-07 18:15 -32.73465 -54.34088 2554 ft 136 kts 360°
2026-05-07 18:15 -32.72510 -54.33884 2550 ft 143 kts 359°
2026-05-07 18:16 -32.71518 -54.33680 2549 ft 146 kts 359°
2026-05-07 18:16 -32.70515 -54.33473 2544 ft 146 kts 359°
2026-05-07 18:16 -32.69512 -54.33265 2543 ft 147 kts 360°
2026-05-07 18:16 -32.68509 -54.33058 2550 ft 147 kts 360°
2026-05-07 18:17 -32.67499 -54.32853 2553 ft 148 kts 360°
2026-05-07 18:17 -32.66479 -54.32648 2566 ft 149 kts 360°
2026-05-07 18:17 -32.65456 -54.32440 2553 ft 148 kts 359°
2026-05-07 18:17 -32.64447 -54.32231 2550 ft 147 kts 359°
2026-05-07 18:18 -32.63447 -54.32018 2578 ft 145 kts
2026-05-07 18:18 -32.62613 -54.31623 3251 ft 114 kts
2026-05-07 18:18 -32.62023 -54.31191 3915 ft 86 kts
2026-05-07 18:18 -32.61480 -54.30786 3805 ft 102 kts
2026-05-07 18:19 -32.60870 -54.30131 3518 ft 127 kts 22°
2026-05-07 18:19 -32.60198 -54.29493 3240 ft 121 kts 11°
2026-05-07 18:19 -32.59450 -54.29152 2971 ft 117 kts
2026-05-07 18:19 -32.58585 -54.28872 2711 ft 139 kts
2026-05-07 18:20 -32.57629 -54.28582 2590 ft 145 kts
2026-05-07 18:20 -32.56962 -54.28384 2587 ft 147 kts
2026-05-07 18:20 -32.55967 -54.28104 2589 ft 147 kts
2026-05-07 18:20 -32.54972 -54.27831 2591 ft 146 kts
2026-05-07 18:21 -32.53650 -54.27472 2590 ft 147 kts
2026-05-07 18:21 -32.52975 -54.27287 2588 ft 147 kts
2026-05-07 18:21 -32.51974 -54.27013 2597 ft 148 kts
2026-05-07 18:21 -32.50968 -54.26740 2596 ft 149 kts
2026-05-07 18:22 -32.49957 -54.26465 2601 ft 150 kts
2026-05-07 18:22 -32.49285 -54.26282 2603 ft 150 kts
2026-05-07 18:22 -32.48061 -54.25948 2605 ft 150 kts
2026-05-07 18:22 -32.47183 -54.25709 2610 ft 150 kts
2026-05-07 18:23 -32.46167 -54.25432 2501 ft 148 kts
2026-05-07 18:23 -32.45129 -54.25156 2362 ft 157 kts
2026-05-07 18:23 -32.44041 -54.24863 2215 ft 163 kts
2026-05-07 18:23 -32.42933 -54.24557 2079 ft 165 kts
2026-05-07 18:24 -32.41816 -54.24254 1942 ft 169 kts
2026-05-07 18:24 -32.40661 -54.23942 1788 ft 172 kts
2026-05-07 18:24 -32.39526 -54.23623 1641 ft 162 kts
2026-05-07 18:24 -32.38465 -54.23338 1613 ft 151 kts
2026-05-07 18:25 -32.37475 -54.23067 1608 ft 142 kts
2026-05-07 18:25 -32.36544 -54.22811 1599 ft 133 kts
2026-05-07 18:25 -32.35677 -54.22575 1608 ft 122 kts
2026-05-07 18:25 -32.34885 -54.22360 1608 ft 110 kts
2026-05-07 18:26 -32.34175 -54.22168 1609 ft 99 kts
2026-05-07 18:26 -32.33530 -54.21993 1607 ft 91 kts
2026-05-07 18:26 -32.32930 -54.21957 1562 ft 87 kts 336°
2026-05-07 18:26 -32.32578 -54.22658 1297 ft 119 kts 288°
2026-05-07 18:27 -32.32540 -54.23627 1277 ft 117 kts 281°
2026-05-07 18:27 -32.32635 -54.24575 1146 ft 125 kts 253°
2026-05-07 18:27 -32.33313 -54.25250 1017 ft 136 kts 185°
2026-05-07 18:27 -32.34173 -54.24957 1012 ft 118 kts 146°
2026-05-07 18:28 -32.34753 -54.24420 934 ft 102 kts 128°
2026-05-07 18:28 -32.34650 -54.23574 706 ft 109 kts 67°
2026-05-07 18:28 -32.34333 -54.22811 509 ft 101 kts 65°
2026-05-07 18:28 -32.34000 -54.22094 372 ft 94 kts 59°
2026-05-07 18:29 -32.33721 -54.21539 370 ft 64 kts 58°
2026-05-07 18:29 -32.33522 -54.21130 370 ft 54 kts 59°
2026-05-07 18:29 -32.33447 -54.21017 370 ft 5 kts 270°